Temperature
24 24 23 22 21 21 23 25 25 25 24 24 24 23 23 22 21 19 19 19 20 19 19 19 19 19 19 19 18 18 18 18 18 18 18 18 18 18 18 18 18 18 18 18 18 18 18 18 18
25 24 23 22 22 22 24 25 25 25 25 24 24 23 22 21 20 19 19 19 20 20 19 19 19 19 19 19 19 19 18 18 18 18 18 18 18 18 18 18 18 18 18 18 18 18 18 18 18
25 24 23 22 22 23 25 25 26 26 25 25 24 23 22 21 20 20 20 20 20 20 19 19 19 19 19 19 19 18 18 18 18 18 18 18 18 18 18 18 18 18 18 18 18 18 18 18 18
25 23 23 22 24 26 26 26 26 26 25 25 24 23 22 21 21 20 20 20 20 20 20 20 19 19 19 19 19 18 18 18 18 18 18 18 18 18 18 18 18 18 18 18 18 18 18 18 18
25 24 23 23 25 27 27 27 27 26 25 24 23 22 21 21 21 21 20 20 20 20 20 20 19 19 19 19 19 19 18 18 18 18 18 18 18 18 18 18 18 18 18 18 18 18 18 18 18
25 24 23 24 26 28 28 27 26 25 24 23 23 22 21 21 21 21 21 20 20 20 20 20 19 19 19 19 19 19 19 19 18 18 18 18 18 18 18 18 18 18 18 18 18 18 18 18 18
26 24 24 25 26 27 27 27 26 25 24 24 23 22 21 21 21 21 21 20 20 20 20 20 19 19 19 19 19 19 19 19 18 18 18 18 18 18 18 18 18 18 18 18 18 18 18 18 18
28 24 25 26 26 27 28 28 27 26 25 24 24 22 21 21 21 21 21 20 20 20 20 20 19 19 19 19 19 19 19 18 18 18 18 18 18 18 18 18 18 18 18 18 18 18 18 18 18
29 24 25 26 27 27 28 27 27 26 25 25 24 23 22 22 21 21 20 20 20 20 20 19 19 19 19 19 19 19 19 19 18 18 18 18 18 18 18 18 18 18 18 18 18 18 18 18 18
28 24 26 28 28 28 28 28 27 26 25 24 24 23 22 22 21 21 21 20 20 20 19 19 19 19 19 19 19 19 19 18 18 18 18 18 18 18 18 18 18 18 18 18 18 18 18 18 18
28 27 28 29 30 29 28 28 27 25 24 24 23 23 22 22 22 21 21 21 20 20 20 20 19 19 19 19 19 19 19 18 18 18 18 18 18 18 18 18 18 18 18 18 18 18 18 18 18
29 29 30 30 30 29 28 28 27 26 25 25 24 24 23 22 22 22 21 21 21 20 20 20 19 19 19 19 19 19 19 19 18 18 18 18 18 18 18 18 18 18 18 18 18 18 18 18 18
29 30 31 30 30 29 29 28 27 26 26 25 24 24 23 23 23 22 22 21 21 20 20 20 20 20 19 19 19 19 19 19 19 18 18 18 18 18 18 18 18 18 18 18 18 18 18 18 18
30 30 30 30 29 29 28 27 27 26 25 24 24 24 24 23 23 22 22 22 21 21 20 20 20 20 19 19 19 19 19 19 19 19 18 18 18 18 18 18 18 18 18 18 18 18 18 18 18
30 29 29 29 29 28 28 27 26 26 25 25 24 24 24 24 23 23 22 22 22 21 21 20 20 20 20 19 19 19 19 19 19 19 18 18 18 18 18 18 18 18 18 18 18 18 18 18 18
28 27 27 28 28 28 27 25 26 26 25 25 25 24 24 24 24 23 23 22 22 22 21 21 20 20 20 20 19 19 19 19 19 19 19 19 18 18 18 18 18 18 18 18 18 18 18 18 18
26 26 26 28 28 28 26 25 26 26 26 25 25 24 24 24 24 24 23 23 22 22 21 21 21 20 20 20 19 19 19 19 19 19 19 19 18 18 18 18 18 18 18 18 18 18 18 18 18
26 26 27 27 28 28 27 26 26 26 26 25 25 25 24 24 24 24 23 23 23 22 22 21 21 20 20 20 19 19 19 19 19 19 19 19 19 19 18 18 18 18 18 18 18 18 18 18 18
27 27 27 28 28 28 27 26 26 26 26 26 25 25 24 24 24 24 24 23 23 22 22 21 21 21 20 20 20 19 19 19 19 19 19 19 19 19 19 18 18 18 18 18 18 18 18 18 18
28 27 27 28 29 28 26 26 26 26 26 26 25 25 25 24 24 24 24 23 23 22 22 22 21 21 20 20 20 20 19 19 19 19 19 19 19 19 19 18 18 18 18 18 18 18 18 18 18
28 27 27 27 28 27 26 25 25 26 26 26 26 26 25 25 24 24 24 23 23 23 22 22 22 21 21 20 20 20 19 19 19 19 19 19 19 19 19 19 18 18 18 18 18 18 18 18 18
28 29 29 28 26 25 26 24 24 25 25 25 25 25 25 25 25 24 24 24 23 23 23 22 22 21 21 21 20 20 20 20 20 19 19 19 19 19 19 19 19 19 18 18 18 18 18 18 18
29 30 29 28 26 24 24 24 24 24 24 24 25 25 26 25 25 25 24 24 24 23 23 22 22 22 21 21 20 20 20 20 20 20 19 19 19 19 19 19 19 19 19 19 18 18 18 18 18
29 28 26 24 22 23 24 24 23 23 24 24 25 26 26 25 25 25 25 24 24 23 23 23 22 22 21 21 21 20 20 20 20 20 20 19 19 19 19 19 19 19 18 19 18 18 18 18 18
28 24 23 24 22 23 23 24 23 24 25 25 25 26 26 26 25 25 24 24 24 24 23 23 22 22 22 21 21 21 20 20 20 20 20 20 19 19 19 19 19 19 19 18 18 18 18 18 18
27 24 23 24 23 23 23 24 24 25 26 26 26 26 26 26 26 25 25 25 24 24 23 23 23 22 22 21 21 21 20 20 20 20 20 20 20 19 19 19 19 19 19 18 18 18 18 18 18
28 25 23 22 22 22 22 23 24 25 25 25 25 25 25 25 25 25 25 25 25 24 24 24 23 23 22 22 21 21 20 20 20 20 20 20 20 19 19 19 19 19 19 18 18 18 18 18 18
28 26 22 22 22 22 23 24 23 24 24 24 23 24 25 25 25 25 25 25 25 24 24 24 23 23 23 22 22 21 21 21 20 20 20 20 19 19 19 19 19 19 19 18 18 18 18 18 18
27 26 23 20 21 21 22 22 24 23 23 23 23 24 25 25 25 25 24 25 24 24 24 24 23 23 22 22 22 21 21 21 20 20 20 20 19 19 19 19 19 19 19 19 18 18 18 18 18
27 26 23 23 22 20 21 22 24 23 23 23 23 23 24 24 24 24 24 24 24 24 23 23 23 22 22 22 22 21 21 21 20 20 20 20 19 19 19 19 19 19 18 18 18 18 18 18 18
Wind_Speed
14 10 5 2 2 4 5 5 8 10 8 9 11 11 10 8 5 6 4 9 10 8 8 10 12 13 13 14 15 16 16 17 17 17 17 17 17 17 17 17 17 17 17 17 16 16 15 15 14
10 7 2 2 4 4 4 7 12 12 12 14 13 13 10 8 8 10 7 9 10 9 9 11 13 13 14 15 15 16 16 15 15 15 16 16 16 16 16 16 16 16 16 16 15 15 14 14 13
8 5 2 3 2 5 6 8 12 13 12 11 8 8 6 7 9 8 9 13 10 7 10 13 14 14 14 15 15 15 15 15 14 15 15 15 15 15 15 15 15 15 15 15 14 13 13 12 11
5 2 2 3 2 4 9 11 13 15 10 10 10 8 6 7 7 11 15 14 11 7 10 14 15 15 15 15 14 14 14 14 14 14 14 15 15 15 15 15 14 14 14 14 13 12 12 11 10
2 3 3 3 3 6 10 13 13 12 7 10 12 9 6 6 15 18 16 14 12 8 9 13 15 15 15 14 14 14 13 13 13 13 14 14 14 14 14 14 14 14 13 13 12 11 11 9 8
2 3 4 4 5 7 8 11 15 16 15 13 12 9 5 10 16 16 15 13 12 11 9 12 14 15 14 14 13 13 13 13 13 14 14 14 14 13 13 13 13 13 13 13 12 10 9 8 7
3 3 3 5 7 8 8 10 13 14 14 9 10 8 5 9 13 15 14 13 11 10 8 8 11 13 14 13 13 12 13 12 13 13 13 13 13 12 13 12 12 12 12 12 11 10 8 6 5
5 4 2 4 7 6 8 8 11 15 10 13 9 8 8 10 13 14 13 11 10 8 7 6 8 10 10 11 12 12 12 12 12 12 12 12 12 12 12 11 11 11 11 11 10 9 7 5 4
4 4 3 5 7 6 9 12 9 10 12 7 6 8 12 16 15 14 11 9 8 8 7 6 6 8 9 9 11 11 11 11 11 10 11 10 9 9 9 9 11 11 10 10 9 8 6 4 3
5 5 6 6 7 8 10 14 10 9 12 10 11 11 15 15 15 14 13 11 10 9 8 7 7 7 8 8 9 8 8 8 8 7 8 8 7 7 8 9 10 10 10 9 8 7 6 4 2
4 6 5 5 7 9 10 10 8 13 10 14 17 16 15 14 13 13 13 12 12 11 9 8 8 8 7 5 7 6 6 6 7 7 8 8 6 6 6 5 6 7 8 6 6 5 4 3 2
3 4 6 5 7 10 9 8 8 10 12 17 18 17 15 14 13 13 12 12 11 10 9 8 8 7 7 7 6 6 5 5 5 7 9 7 4 4 4 4 5 5 5 4 4 3 4 3 4
3 2 4 6 7 8 9 10 9 9 14 17 17 15 15 14 12 11 12 12 11 10 10 9 8 8 7 6 5 6 5 6 7 8 9 9 5 4 4 4 5 5 6 5 4 3 3 3 4
2 2 4 6 7 6 9 8 8 10 16 17 16 14 13 13 12 10 11 12 11 11 10 9 9 8 7 6 5 5 6 7 7 7 9 10 8 5 5 4 4 5 6 6 5 5 3 3 3
2 2 2 3 5 6 9 4 6 14 16 16 15 14 13 13 13 13 14 13 13 11 10 10 9 8 8 7 6 5 6 7 6 7 9 10 9 7 5 4 4 5 7 6 4 4 3 2 2
4 3 1 3 3 5 9 5 6 13 14 13 14 14 12 12 13 14 14 12 12 12 11 10 10 8 7 6 5 4 5 6 6 8 8 9 9 9 6 4 4 5 5 4 3 3 2 2 2
4 1 3 3 4 4 5 6 9 12 14 13 13 13 12 11 11 12 14 14 13 13 12 10 9 9 7 6 4 4 5 4 5 7 7 8 9 9 7 4 4 5 3 3 3 3 3 2 2
4 3 4 5 4 3 3 5 10 13 14 13 13 12 13 14 13 13 13 14 13 12 12 11 9 9 7 5 3 3 3 3 4 5 6 8 8 8 7 4 4 4 3 3 2 3 2 2 2
6 5 6 7 5 4 4 6 10 11 10 11 11 12 14 14 12 12 13 14 13 11 11 11 10 9 7 4 4 3 3 3 3 4 7 8 8 8 6 4 3 4 4 4 4 2 2 1 1
5 4 5 5 4 4 4 4 7 10 13 14 15 14 13 11 11 12 12 12 13 13 12 11 11 10 8 6 5 4 4 3 3 3 4 7 8 7 6 5 4 4 4 3 4 3 2 1 2
6 6 7 5 1 1 3 1 5 7 7 9 12 14 14 17 17 16 15 14 13 13 13 13 12 10 9 8 4 3 2 1 1 2 3 4 7 7 6 6 5 4 4 4 4 4 4 3 2
8 9 7 5 4 2 4 3 6 6 6 9 10 12 15 15 15 16 16 16 16 15 13 12 12 11 9 9 7 7 6 5 5 4 4 4 5 5 6 6 5 5 4 4 4 4 4 4 3
8 7 4 4 3 1 0 4 6 3 5 9 11 14 15 15 16 17 17 17 16 14 13 12 11 11 10 9 9 8 6 5 4 3 5 5 4 4 5 5 5 5 4 4 4 4 4 4 4
3 3 5 6 4 1 5 5 6 6 11 11 11 14 14 14 15 15 14 13 12 12 12 12 11 11 10 10 9 9 8 7 6 5 6 5 4 3 4 5 5 5 4 5 4 4 4 4 4
3 6 3 4 4 6 5 2 8 9 11 13 13 13 13 14 14 13 13 14 14 14 13 12 13 11 11 10 10 10 10 9 8 7 7 6 4 3 5 5 5 4 5 4 4 4 4 4 4
4 10 8 6 5 6 4 4 8 8 7 7 9 9 9 11 12 12 14 14 15 15 14 13 13 12 11 11 10 9 9 7 6 7 6 6 6 5 5 5 5 5 5 5 4 4 4 3 3
4 5 10 8 3 1 5 5 6 3 2 4 6 7 8 9 10 11 12 13 14 14 14 13 13 11 11 11 9 8 8 8 7 7 6 5 5 5 6 6 5 5 5 5 4 3 3 3 3
6 6 6 6 5 3 4 3 4 4 3 4 7 7 7 7 8 9 10 12 11 12 12 11 12 12 11 11 10 9 7 7 7 6 6 6 6 5 5 5 6 5 5 5 4 3 3 4 3
2 2 4 5 6 7 4 6 5 8 7 7 8 8 7 8 8 8 10 10 10 9 9 10 10 10 10 10 9 8 7 7 6 6 7 7 6 6 6 6 6 5 5 5 5 4 4 5 4
4 3 5 4 4 6 5 6 5 5 6 7 8 7 7 8 6 6 7 8 8 8 8 8 9 9 10 10 9 8 7 7 6 7 7 7 6 6 6 6 6 6 5 5 4 5 5 5 5
Wind_Direction
155 154 155 155 54 53 85 96 98 84 69 70 77 84 84 69 97 128 150 141 131 130 130 124 120 116 112 111 112 111 109 109 113 116 119 120 120 121 121 123 126 127 127 126 124 123 123 124 123
157 159 163 74 80 82 81 102 97 102 119 108 87 86 81 73 90 115 128 140 134 133 131 125 123 119 115 112 113 113 113 112 114 120 122 123 124 125 126 128 129 130 129 128 128 127 127 127 127
166 178 135 73 102 132 123 113 109 107 110 101 93 73 76 106 117 131 147 143 134 129 130 130 125 121 118 115 116 116 115 115 116 120 126 128 128 128 129 130 131 132 132 133 133 131 130 130 128
154 138 51 72 111 143 128 128 119 111 90 86 97 79 75 111 126 136 142 140 131 127 131 134 131 129 126 123 122 121 120 119 120 123 127 131 132 132 131 131 132 133 133 134 134 133 133 133 132
135 108 60 55 108 112 119 126 118 107 96 98 99 99 85 91 118 132 140 139 135 134 136 137 135 134 131 129 127 126 125 123 123 127 130 132 133 134 135 134 136 137 137 138 138 139 138 139 139
103 82 77 94 101 100 113 121 110 107 114 111 107 107 105 123 128 138 141 143 143 141 140 141 140 139 137 134 133 133 131 128 126 130 134 135 136 136 139 139 140 140 140 141 141 142 143 144 141
130 107 134 131 110 112 124 121 117 126 131 129 125 107 120 136 142 144 141 143 142 140 140 142 146 144 143 140 138 137 135 133 131 131 133 136 139 140 141 141 141 141 142 143 145 148 150 149 147
163 108 96 113 115 124 130 112 124 127 120 132 128 126 149 159 143 138 134 136 138 140 143 143 148 147 148 148 146 144 143 141 138 136 135 135 139 141 143 145 145 145 146 148 151 154 155 154 157
131 97 142 157 137 146 130 111 112 114 121 129 112 131 150 148 137 131 128 127 140 147 151 152 154 156 157 159 156 152 149 148 146 143 140 137 135 139 145 151 150 150 154 156 159 162 165 170 176
114 137 180 180 151 152 140 131 127 113 113 110 112 122 137 140 139 142 146 149 155 159 167 164 164 164 168 167 157 157 155 157 156 156 147 142 145 152 153 159 162 163 165 167 171 175 181 188 205
130 154 163 142 138 140 136 137 125 126 134 146 145 146 147 144 146 149 153 157 162 164 167 168 169 167 169 160 155 161 163 166 168 168 160 153 151 158 158 163 170 174 174 176 178 184 193 195 208
121 154 148 152 132 130 141 142 133 141 159 156 151 151 152 155 158 160 158 158 158 159 163 162 160 158 162 157 160 165 171 174 174 176 171 162 157 162 168 171 174 181 184 185 188 199 209 214 225
120 152 151 150 126 133 134 136 133 136 145 149 151 154 157 162 165 163 157 156 153 154 158 161 157 155 154 150 163 166 175 176 182 178 178 173 165 170 174 180 182 191 191 189 194 207 216 227 234
194 160 145 132 120 124 120 122 112 145 147 152 157 162 163 162 160 156 153 156 157 158 159 158 155 155 152 154 158 161 173 177 178 178 178 176 174 170 169 176 183 195 198 198 196 205 199 208 211
77 67 85 140 132 139 115 106 143 154 154 158 165 168 166 164 161 162 164 164 164 163 159 159 158 156 156 160 162 159 173 176 177 182 182 180 178 174 169 169 182 195 198 195 191 194 184 190 199
44 58 110 247 150 149 120 167 179 159 162 167 172 170 167 170 168 167 165 164 164 161 161 166 163 160 161 160 155 154 169 177 182 183 187 188 183 179 169 172 193 194 186 172 172 176 172 200 207
36 70 248 254 203 161 128 180 182 172 168 176 178 174 169 171 173 170 167 165 166 165 164 166 161 163 166 162 151 147 157 177 184 180 183 187 183 180 173 178 194 188 177 179 189 178 174 189 209
242 232 242 235 225 167 169 205 188 181 176 183 181 175 173 177 179 175 170 167 167 166 164 164 163 168 164 154 142 134 146 173 179 177 182 179 181 178 171 180 192 177 169 181 183 178 177 180 196
211 209 238 242 218 172 197 189 198 186 184 187 182 180 180 185 180 171 171 168 165 166 166 167 167 172 162 155 157 160 175 180 179 186 184 182 183 180 174 178 180 172 175 183 180 170 171 188 159
219 216 243 267 224 166 180 198 208 194 191 189 183 184 181 179 173 174 174 172 173 175 175 172 174 176 174 173 171 170 169 184 186 186 184 188 186 185 183 173 179 178 171 176 182 169 162 199 160
252 211 210 215 246 82 110 353 227 220 202 192 188 184 180 179 180 181 180 181 179 181 181 180 179 178 179 171 158 146 122 116 161 191 199 199 191 193 190 179 176 178 174 183 190 180 170 190 209
252 237 207 193 147 226 151 191 252 225 209 196 192 188 188 184 181 183 183 183 186 187 183 178 178 180 180 172 171 169 176 188 203 196 197 201 194 192 189 177 176 178 179 186 197 185 176 171 196
236 235 195 181 150 80 47 153 258 215 210 209 197 196 192 189 184 186 188 187 188 185 182 179 177 180 181 180 181 181 189 195 191 185 189 198 200 194 188 181 179 184 187 192 195 182 183 182 187
242 45 42 55 66 328 240 171 249 219 209 208 201 196 191 189 187 186 190 185 183 181 179 176 177 184 183 185 185 187 189 187 181 186 191 198 200 203 203 188 182 188 191 194 194 192 188 196 197
75 91 38 360 356 256 258 186 239 238 212 196 194 188 186 185 185 182 184 184 182 181 180 178 179 186 186 187 190 193 192 186 187 189 193 195 197 204 210 198 189 191 198 197 191 189 200 199 198
210 143 160 190 216 267 306 235 252 251 220 189 181 173 178 183 185 182 184 183 181 180 179 180 184 188 188 189 193 195 190 186 192 194 191 195 199 206 202 196 195 196 194 199 190 193 206 200 206
201 189 168 145 165 224 276 273 307 320 159 156 151 146 170 182 183 183 182 181 179 178 179 182 185 189 190 189 188 191 191 191 194 194 192 195 200 204 200 197 196 200 197 194 181 190 202 196 203
180 169 104 120 154 229 277 270 239 243 199 155 140 147 174 181 180 181 178 177 177 179 178 181 184 187 186 184 188 195 196 194 193 189 195 198 200 202 195 198 194 193 194 193 187 193 199 199 214
349 61 111 131 155 162 216 262 237 199 184 161 155 157 153 161 172 180 180 174 170 168 170 178 184 181 184 187 187 188 191 194 193 196 199 198 197 192 193 197 194 194 197 193 191 203 199 207 219
182 180 141 158 222 167 168 254 277 183 165 151 143 142 137 139 148 148 157 153 150 157 165 176 182 185 188 186 185 189 189 189 196 203 203 197 195 196 196 192 192 201 206 203 198 215 215 214 221
Height
1496 1496 1497 1499 1502 1509 1509 1501 1495 1495 1497 1497 1496 1497 1501 1505 1509 1518 1515 1514 1515 1514 1514 1514 1514 1514 1514 1514 1514 1515 1516 1517 1518 1519 1521 1522 1523 1525 1526 1528 1529 1531 1532 1534 1536 1538 1539 1541 1543
1496 1497 1499 1499 1507 1521 1513 1499 1497 1497 1498 1498 1499 1501 1503 1508 1509 1512 1513 1515 1515 1515 1515 1515 1515 1516 1516 1516 1516 1518 1519 1519 1520 1521 1523 1524 1525 1527 1528 1529 1531 1533 1534 1536 1538 1540 1541 1542 1544
1496 1497 1500 1502 1509 1515 1510 1499 1497 1498 1498 1497 1501 1503 1506 1510 1511 1512 1514 1515 1516 1516 1515 1516 1517 1517 1517 1518 1519 1520 1521 1522 1522 1523 1524 1526 1527 1529 1530 1531 1533 1534 1536 1538 1539 1541 1542 1544 1545
1497 1499 1501 1506 1509 1500 1497 1496 1495 1498 1500 1500 1501 1506 1509 1512 1512 1514 1515 1517 1517 1517 1517 1517 1518 1519 1519 1520 1521 1522 1522 1523 1524 1524 1525 1527 1529 1530 1532 1533 1534 1536 1537 1539 1541 1542 1544 1545 1547
1496 1498 1504 1510 1504 1496 1493 1494 1495 1497 1500 1503 1503 1508 1512 1514 1514 1515 1517 1518 1518 1518 1518 1519 1520 1520 1521 1522 1523 1523 1524 1524 1524 1525 1526 1528 1530 1531 1533 1534 1536 1537 1538 1540 1542 1543 1545 1546 1548
1497 1499 1512 1516 1504 1496 1494 1494 1496 1499 1503 1505 1506 1509 1514 1516 1515 1516 1518 1519 1520 1519 1520 1520 1521 1522 1523 1524 1524 1525 1525 1525 1525 1526 1528 1530 1531 1532 1534 1535 1537 1538 1539 1541 1543 1545 1546 1548 1549
1497 1502 1510 1507 1504 1500 1496 1495 1496 1500 1503 1505 1506 1510 1515 1517 1517 1518 1519 1520 1521 1521 1522 1522 1523 1524 1525 1525 1526 1527 1527 1527 1528 1528 1530 1531 1533 1534 1535 1536 1538 1539 1541 1543 1544 1546 1547 1549 1550
1494 1499 1506 1505 1504 1502 1496 1495 1497 1499 1503 1507 1507 1509 1514 1517 1518 1519 1521 1522 1523 1523 1523 1524 1525 1525 1526 1527 1528 1528 1529 1529 1530 1530 1532 1533 1534 1535 1536 1538 1539 1541 1542 1544 1546 1547 1548 1550 1551
1492 1503 1510 1503 1501 1500 1495 1496 1500 1501 1503 1506 1507 1509 1512 1516 1518 1520 1521 1523 1524 1524 1525 1525 1526 1527 1527 1528 1529 1530 1530 1531 1532 1532 1533 1534 1535 1536 1538 1539 1541 1542 1544 1545 1547 1548 1549 1551 1552
1490 1504 1500 1492 1491 1494 1495 1496 1499 1503 1505 1508 1510 1512 1514 1516 1518 1520 1521 1522 1524 1525 1526 1526 1527 1528 1528 1529 1530 1531 1532 1533 1533 1534 1535 1536 1537 1538 1539 1541 1542 1544 1545 1546 1548 1549 1550 1552 1553
1487 1493 1489 1489 1489 1491 1494 1496 1498 1501 1506 1506 1508 1512 1515 1517 1518 1520 1521 1522 1524 1525 1526 1527 1528 1529 1529 1530 1531 1532 1533 1534 1535 1535 1536 1537 1538 1539 1541 1542 1543 1545 1546 1547 1549 1550 1551 1553 1554
1486 1486 1486 1487 1488 1491 1493 1495 1498 1499 1502 1504 1506 1509 1513 1516 1518 1519 1521 1522 1524 1525 1526 1527 1528 1529 1530 1531 1532 1533 1534 1534 1535 1536 1537 1538 1539 1540 1542 1543 1544 1546 1547 1548 1550 1551 1552 1553 1554
1485 1486 1485 1486 1488 1490 1491 1494 1497 1500 1502 1506 1508 1511 1513 1515 1517 1519 1521 1522 1524 1525 1527 1528 1529 1530 1531 1532 1533 1533 1534 1535 1536 1537 1538 1539 1540 1541 1542 1543 1545 1546 1548 1549 1550 1551 1552 1553 1554
1485 1485 1485 1487 1489 1492 1493 1496 1497 1502 1503 1507 1509 1511 1513 1515 1517 1519 1521 1522 1524 1525 1526 1528 1529 1530 1531 1532 1533 1534 1535 1536 1536 1537 1538 1539 1540 1541 1542 1543 1545 1546 1548 1549 1550 1551 1552 1553 1554
1484 1487 1488 1488 1489 1493 1494 1501 1500 1502 1504 1506 1509 1510 1512 1514 1516 1518 1519 1521 1523 1525 1526 1528 1529 1530 1532 1533 1533 1534 1535 1536 1537 1538 1539 1539 1540 1542 1543 1543 1544 1546 1547 1549 1550 1551 1551 1552 1553
1486 1494 1501 1492 1488 1491 1497 1509 1499 1501 1504 1506 1508 1509 1511 1513 1515 1517 1518 1520 1522 1524 1526 1527 1529 1530 1532 1533 1534 1534 1535 1536 1537 1538 1539 1539 1540 1541 1542 1543 1544 1545 1547 1548 1549 1550 1551 1551 1552
1498 1507 1504 1495 1488 1489 1495 1504 1497 1499 1502 1504 1506 1507 1510 1512 1514 1515 1517 1519 1521 1523 1524 1526 1528 1530 1531 1533 1534 1535 1535 1536 1537 1537 1538 1539 1540 1541 1542 1543 1543 1544 1546 1547 1548 1549 1550 1550 1551
1507 1505 1501 1498 1487 1487 1493 1496 1494 1496 1498 1501 1503 1505 1507 1509 1511 1513 1515 1518 1520 1522 1523 1525 1527 1529 1531 1532 1533 1534 1535 1535 1536 1537 1538 1538 1539 1540 1541 1542 1542 1543 1544 1545 1546 1547 1548 1548 1549
1491 1496 1498 1491 1482 1487 1491 1493 1492 1494 1497 1499 1501 1503 1504 1506 1509 1512 1514 1516 1518 1521 1522 1524 1525 1527 1529 1530 1532 1533 1534 1535 1535 1536 1537 1538 1538 1539 1540 1540 1541 1542 1543 1544 1545 1545 1546 1546 1547
1486 1495 1496 1487 1480 1486 1491 1493 1489 1490 1491 1493 1496 1499 1501 1505 1508 1510 1512 1514 1516 1518 1520 1522 1523 1525 1527 1528 1530 1532 1533 1534 1535 1535 1536 1537 1537 1538 1539 1539 1540 1541 1542 1542 1543 1544 1544 1545 1546
1485 1490 1491 1490 1484 1485 1492 1499 1493 1489 1489 1490 1492 1494 1497 1499 1502 1506 1508 1511 1513 1515 1517 1519 1521 1523 1525 1527 1529 1530 1532 1533 1533 1534 1535 1536 1536 1537 1538 1538 1539 1540 1540 1541 1541 1542 1542 1542 1543
1487 1475 1477 1482 1494 1503 1498 1518 1499 1490 1488 1488 1489 1492 1493 1495 1498 1502 1504 1507 1510 1512 1515 1517 1519 1521 1523 1525 1526 1527 1528 1529 1531 1532 1533 1534 1535 1536 1537 1537 1538 1538 1538 1539 1539 1539 1540 1540 1541
1473 1467 1473 1479 1491 1503 1501 1512 1505 1491 1492 1486 1484 1486 1488 1492 1495 1498 1501 1503 1507 1510 1513 1516 1518 1520 1522 1523 1525 1526 1527 1528 1529 1530 1532 1532 1533 1534 1535 1535 1536 1536 1537 1537 1537 1537 1538 1538 1539
1464 1470 1478 1488 1501 1517 1504 1509 1508 1493 1485 1480 1478 1480 1483 1488 1491 1494 1498 1502 1505 1508 1511 1513 1516 1518 1519 1521 1523 1524 1525 1526 1527 1528 1529 1530 1531 1532 1533 1534 1534 1534 1535 1535 1536 1536 1536 1536 1536
1467 1489 1513 1518 1526 1521 1500 1504 1501 1477 1471 1471 1471 1474 1479 1483 1487 1491 1495 1499 1502 1505 1508 1511 1513 1515 1517 1519 1521 1522 1523 1525 1526 1527 1528 1528 1529 1530 1531 1532 1532 1532 1533 1533 1534 1534 1534 1534 1534
1469 1484 1512 1525 1528 1518 1502 1504 1488 1468 1465 1466 1468 1471 1475 1479 1483 1486 1490 1494 1498 1502 1505 1508 1510 1512 1515 1516 1518 1520 1522 1523 1524 1525 1526 1527 1527 1528 1529 1530 1530 1531 1531 1531 1532 1532 1532 1532 1532
1467 1476 1480 1502 1510 1519 1511 1495 1479 1467 1467 1465 1467 1469 1472 1475 1479 1483 1486 1490 1494 1498 1501 1504 1507 1510 1512 1514 1516 1518 1520 1521 1522 1523 1524 1525 1526 1527 1527 1528 1528 1528 1529 1529 1529 1530 1529 1530 1530
1455 1463 1485 1500 1517 1524 1512 1501 1494 1477 1472 1468 1467 1467 1469 1473 1477 1481 1484 1488 1492 1495 1499 1502 1505 1507 1509 1511 1513 1516 1517 1518 1520 1521 1522 1522 1523 1524 1525 1526 1526 1526 1526 1527 1527 1527 1527 1527 1527
1461 1466 1478 1494 1500 1516 1521 1507 1473 1471 1469 1468 1467 1467 1468 1470 1474 1478 1481 1485 1490 1494 1498 1500 1503 1505 1507 1509 1511 1513 1514 1516 1517 1518 1519 1520 1521 1521 1522 1523 1523 1524 1524 1524 1524 1524 1525 1524 1524
1455 1462 1475 1492 1497 1501 1509 1501 1466 1465 1464 1465 1466 1466 1467 1469 1473 1477 1481 1485 1488 1492 1496 1498 1500 1503 1505 1506 1508 1509 1511 1512 1513 1514 1515 1517 1517 1518 1519 1519 1520 1521 1521 1521 1521 1521 1522 1522 1522